QPF
0.00 0.00 0.00 0.00 0.00 0.00 0.00 0.00 0.00 0.00 0.00 0.00 0.00 0.00 0.00 0.00 0.00 0.00 0.00 0.00 0.00 0.00 0.00 0.00 0.00 0.00 0.00 0.00 0.00 0.00 0.01 0.03 0.00 0.00 0.00 0.00 0.00 0.00 0.00 0.00 0.00 0.00 0.00 0.00 0.00
0.00 0.00 0.00 0.00 0.00 0.00 0.00 0.00 0.00 0.00 0.00 0.00 0.00 0.00 0.00 0.00 0.00 0.00 0.00 0.00 0.00 0.00 0.00 0.00 0.00 0.00 0.00 0.00 0.00 0.00 0.00 0.01 0.00 0.00 0.00 0.00 0.00 0.00 0.00 0.00 0.00 0.00 0.00 0.00 0.00
0.00 0.01 0.00 0.00 0.00 0.00 0.00 0.00 0.00 0.00 0.00 0.00 0.00 0.00 0.00 0.00 0.00 0.00 0.00 0.00 0.00 0.00 0.00 0.00 0.00 0.00 0.00 0.00 0.00 0.00 0.00 0.00 0.00 0.00 0.00 0.00 0.00 0.00 0.00 0.00 0.00 0.00 0.00 0.00 0.00
0.01 0.01 0.00 0.00 0.00 0.00 0.00 0.00 0.00 0.00 0.00 0.00 0.00 0.00 0.00 0.00 0.00 0.00 0.00 0.00 0.00 0.00 0.00 0.00 0.00 0.00 0.00 0.00 0.00 0.00 0.00 0.00 0.00 0.00 0.00 0.00 0.00 0.00 0.00 0.00 0.00 0.00 0.00 0.00 0.00
0.01 0.01 0.00 0.00 0.00 0.00 0.00 0.00 0.00 0.00 0.00 0.00 0.00 0.00 0.00 0.00 0.00 0.00 0.00 0.00 0.00 0.00 0.00 0.00 0.00 0.00 0.00 0.00 0.00 0.00 0.01 0.01 0.01 0.02 0.01 0.00 0.00 0.00 0.00 0.00 0.00 0.00 0.00 0.00 0.00
0.01 0.01 0.00 0.00 0.00 0.00 0.00 0.00 0.00 0.00 0.00 0.00 0.00 0.00 0.00 0.00 0.00 0.00 0.00 0.00 0.00 0.00 0.00 0.00 0.00 0.00 0.00 0.00 0.00 0.00 0.00 0.01 0.06 0.06 0.00 0.00 0.00 0.00 0.00 0.00 0.00 0.00 0.00 0.00 0.00
0.00 0.00 0.01 0.00 0.00 0.00 0.00 0.00 0.00 0.00 0.00 0.00 0.00 0.00 0.00 0.00 0.00 0.00 0.00 0.00 0.00 0.00 0.00 0.00 0.00 0.00 0.00 0.00 0.00 0.00 0.01 0.02 0.00 0.00 0.01 0.02 0.09 0.02 0.00 0.00 0.00 0.00 0.00 0.00 0.00
0.00 0.00 0.00 0.00 0.00 0.00 0.00 0.00 0.00 0.00 0.00 0.00 0.00 0.00 0.00 0.00 0.00 0.00 0.00 0.00 0.00 0.00 0.00 0.00 0.00 0.00 0.00 0.00 0.00 0.00 0.02 0.05 0.04 0.00 0.00 0.08 0.17 0.03 0.01 0.00 0.00 0.00 0.00 0.00 0.00
0.00 0.00 0.00 0.00 0.00 0.00 0.00 0.00 0.00 0.00 0.00 0.00 0.00 0.00 0.00 0.00 0.00 0.00 0.00 0.00 0.00 0.00 0.00 0.00 0.00 0.00 0.00 0.00 0.00 0.01 0.01 0.03 0.05 0.00 0.00 0.06 0.28 0.11 0.00 0.00 0.00 0.00 0.00 0.00 0.00
0.00 0.00 0.00 0.00 0.00 0.00 0.00 0.00 0.00 0.00 0.00 0.00 0.00 0.00 0.00 0.00 0.00 0.00 0.00 0.00 0.00 0.00 0.00 0.00 0.00 0.00 0.00 0.00 0.00 0.00 0.00 0.00 0.01 0.00 0.00 0.06 0.05 0.01 0.00 0.00 0.00 0.00 0.00 0.00 0.00
0.00 0.00 0.00 0.00 0.00 0.00 0.00 0.00 0.00 0.00 0.00 0.00 0.00 0.00 0.00 0.00 0.00 0.00 0.00 0.00 0.00 0.00 0.00 0.00 0.00 0.00 0.00 0.00 0.00 0.00 0.00 0.00 0.00 0.00 0.03 0.06 0.01 0.00 0.00 0.00 0.00 0.00 0.00 0.00 0.00
0.00 0.00 0.00 0.00 0.00 0.00 0.00 0.00 0.00 0.00 0.00 0.00 0.00 0.00 0.00 0.00 0.00 0.00 0.00 0.00 0.00 0.00 0.00 0.00 0.00 0.00 0.00 0.00 0.00 0.00 0.00 0.00 0.00 0.00 0.02 0.03 0.02 0.00 0.00 0.01 0.00 0.00 0.00 0.00 0.00
0.00 0.00 0.00 0.00 0.00 0.00 0.00 0.00 0.00 0.00 0.00 0.00 0.00 0.00 0.00 0.00 0.00 0.00 0.00 0.00 0.00 0.00 0.00 0.00 0.00 0.00 0.00 0.00 0.00 0.00 0.00 0.00 0.00 0.00 0.00 0.01 0.01 0.00 0.00 0.01 0.00 0.00 0.00 0.00 0.00
0.00 0.00 0.00 0.00 0.00 0.00 0.00 0.00 0.00 0.00 0.00 0.00 0.00 0.00 0.00 0.00 0.00 0.00 0.00 0.00 0.00 0.00 0.00 0.00 0.00 0.00 0.00 0.00 0.00 0.00 0.00 0.00 0.00 0.00 0.00 0.00 0.00 0.00 0.00 0.00 0.00 0.00 0.00 0.00 0.01
0.00 0.00 0.00 0.00 0.00 0.00 0.00 0.00 0.00 0.00 0.00 0.00 0.00 0.00 0.00 0.00 0.00 0.00 0.00 0.00 0.00 0.00 0.00 0.00 0.00 0.00 0.00 0.00 0.00 0.00 0.00 0.00 0.00 0.00 0.00 0.00 0.00 0.00 0.00 0.00 0.00 0.00 0.00 0.00 0.00
0.00 0.00 0.00 0.00 0.00 0.00 0.00 0.00 0.00 0.00 0.00 0.00 0.00 0.00 0.00 0.00 0.00 0.00 0.00 0.00 0.00 0.00 0.00 0.00 0.00 0.00 0.00 0.00 0.00 0.00 0.00 0.00 0.00 0.00 0.00 0.00 0.00 0.00 0.00 0.00 0.00 0.00 0.00 0.00 0.00
0.00 0.00 0.00 0.00 0.00 0.00 0.00 0.00 0.00 0.00 0.00 0.00 0.00 0.00 0.00 0.00 0.00 0.00 0.00 0.00 0.00 0.00 0.00 0.00 0.00 0.00 0.00 0.00 0.00 0.00 0.00 0.00 0.00 0.00 0.00 0.00 0.00 0.00 0.00 0.00 0.00 0.00 0.00 0.00 0.00
0.00 0.00 0.00 0.00 0.00 0.00 0.00 0.00 0.00 0.00 0.00 0.00 0.00 0.00 0.00 0.00 0.00 0.00 0.00 0.00 0.00 0.00 0.00 0.00 0.00 0.00 0.00 0.00 0.00 0.00 0.00 0.00 0.00 0.00 0.00 0.00 0.00 0.00 0.00 0.00 0.00 0.00 0.00 0.00 0.00
0.00 0.00 0.00 0.00 0.00 0.00 0.00 0.00 0.00 0.00 0.00 0.00 0.00 0.00 0.00 0.00 0.00 0.00 0.00 0.00 0.00 0.00 0.00 0.00 0.00 0.00 0.00 0.00 0.00 0.00 0.00 0.00 0.00 0.00 0.00 0.00 0.00 0.00 0.00 0.00 0.00 0.00 0.00 0.00 0.00
0.00 0.00 0.00 0.00 0.00 0.00 0.00 0.00 0.00 0.00 0.00 0.00 0.00 0.00 0.00 0.00 0.00 0.00 0.00 0.00 0.00 0.00 0.00 0.00 0.00 0.00 0.00 0.00 0.00 0.00 0.00 0.00 0.00 0.00 0.00 0.00 0.00 0.00 0.00 0.00 0.00 0.00 0.00 0.00 0.00
0.00 0.00 0.00 0.00 0.00 0.00 0.00 0.00 0.00 0.00 0.00 0.00 0.00 0.00 0.00 0.00 0.00 0.00 0.00 0.00 0.00 0.00 0.00 0.00 0.00 0.00 0.00 0.00 0.00 0.00 0.00 0.00 0.00 0.00 0.00 0.00 0.00 0.00 0.00 0.00 0.00 0.00 0.00 0.00 0.00
0.00 0.00 0.00 0.00 0.00 0.00 0.00 0.00 0.00 0.00 0.00 0.00 0.00 0.00 0.00 0.00 0.00 0.00 0.00 0.00 0.00 0.00 0.00 0.00 0.00 0.00 0.00 0.00 0.00 0.00 0.00 0.00 0.00 0.00 0.00 0.00 0.00 0.00 0.00 0.00 0.00 0.00 0.00 0.00 0.00
0.00 0.00 0.00 0.00 0.00 0.00 0.00 0.00 0.00 0.00 0.00 0.00 0.00 0.00 0.00 0.00 0.00 0.00 0.00 0.00 0.00 0.00 0.00 0.00 0.00 0.00 0.00 0.00 0.00 0.00 0.00 0.00 0.00 0.00 0.00 0.00 0.00 0.00 0.00 0.00 0.00 0.00 0.00 0.00 0.00
0.00 0.00 0.00 0.00 0.00 0.00 0.00 0.00 0.00 0.00 0.00 0.00 0.00 0.00 0.00 0.00 0.00 0.00 0.00 0.00 0.00 0.00 0.00 0.00 0.00 0.00 0.00 0.00 0.00 0.00 0.00 0.00 0.00 0.00 0.00 0.00 0.00 0.00 0.00 0.00 0.00 0.00 0.00 0.00 0.00
0.00 0.00 0.00 0.00 0.00 0.00 0.00 0.00 0.00 0.00 0.00 0.00 0.00 0.00 0.00 0.00 0.00 0.00 0.00 0.00 0.00 0.00 0.00 0.00 0.00 0.00 0.00 0.00 0.00 0.00 0.00 0.00 0.00 0.00 0.00 0.00 0.00 0.00 0.00 0.00 0.00 0.00 0.00 0.00 0.00
0.00 0.00 0.00 0.00 0.00 0.00 0.00 0.00 0.00 0.00 0.00 0.00 0.00 0.00 0.00 0.00 0.00 0.00 0.00 0.00 0.00 0.00 0.00 0.00 0.00 0.00 0.00 0.00 0.00 0.00 0.00 0.00 0.00 0.00 0.00 0.00 0.00 0.00 0.00 0.00 0.00 0.00 0.00 0.00 0.00
0.00 0.00 0.00 0.00 0.00 0.00 0.00 0.00 0.00 0.00 0.00 0.00 0.00 0.00 0.00 0.00 0.00 0.00 0.00 0.00 0.00 0.00 0.00 0.00 0.00 0.00 0.00 0.00 0.00 0.00 0.00 0.00 0.00 0.00 0.00 0.00 0.00 0.00 0.00 0.00 0.00 0.00 0.00 0.00 0.00
MSLP
1016.74 1016.40 1016.07 1015.74 1015.46 1015.14 1014.87 1014.74 1014.63 1014.52 1014.32 1014.10 1013.94 1013.76 1013.62 1013.49 1013.02 1012.68 1011.20 1009.73 1009.63 1009.74 1010.00 1010.20 1010.26 1010.42 1010.56 1010.74 1011.06 1011.17 1011.06 1011.16 1011.14 1010.94 1011.29 1011.27 1011.27 1011.68 1011.77 1012.14 1012.48 1012.85 1013.12 1013.55 1014.80
1016.65 1016.30 1016.01 1015.65 1015.33 1015.04 1014.78 1014.62 1014.50 1014.30 1014.21 1014.00 1013.79 1013.63 1013.47 1013.35 1012.78 1011.40 1009.39 1009.46 1009.49 1009.62 1009.70 1009.79 1009.93 1010.17 1010.32 1010.83 1011.11 1011.16 1011.31 1011.99 1012.14 1011.80 1011.80 1011.65 1011.45 1011.51 1011.74 1012.09 1012.69 1013.21 1013.82 1014.28 1014.99
1016.57 1016.21 1015.90 1015.56 1015.21 1014.88 1014.61 1014.43 1014.35 1014.16 1013.99 1013.86 1013.63 1013.46 1013.33 1013.20 1012.06 1009.75 1009.05 1009.47 1009.56 1009.62 1009.62 1009.70 1009.83 1009.99 1010.16 1010.73 1011.17 1011.33 1011.82 1012.56 1012.48 1012.31 1012.12 1011.88 1011.60 1011.60 1011.61 1011.90 1012.29 1012.92 1013.72 1014.35 1014.87
1016.42 1016.02 1015.68 1015.34 1015.01 1014.71 1014.41 1014.21 1014.05 1013.92 1013.88 1013.66 1013.48 1013.32 1013.15 1012.83 1011.12 1009.31 1009.13 1009.46 1009.63 1009.72 1009.73 1009.74 1009.92 1009.83 1010.14 1010.56 1011.15 1011.59 1012.55 1012.58 1012.88 1012.64 1012.32 1012.12 1011.92 1011.74 1011.68 1011.64 1011.92 1012.84 1013.65 1014.18 1014.67
1016.40 1015.93 1015.49 1015.13 1014.78 1014.48 1014.26 1014.03 1013.90 1013.80 1013.62 1013.43 1013.30 1013.18 1012.93 1011.74 1009.86 1009.17 1009.27 1009.51 1009.75 1009.80 1009.62 1009.52 1009.62 1009.76 1009.96 1010.55 1011.17 1011.66 1012.47 1012.74 1013.11 1013.06 1012.74 1012.40 1012.12 1012.10 1011.83 1012.03 1012.17 1013.08 1013.91 1014.06 1014.60
1016.36 1015.85 1015.39 1015.00 1014.62 1014.25 1013.97 1013.86 1013.74 1013.60 1013.37 1013.25 1013.13 1013.04 1012.33 1010.51 1009.31 1009.26 1009.39 1009.73 1009.57 1009.67 1009.63 1009.52 1009.34 1009.52 1009.91 1010.45 1010.97 1011.49 1012.26 1013.01 1013.48 1013.36 1013.23 1012.70 1012.33 1012.13 1012.08 1012.34 1012.66 1013.16 1013.64 1013.99 1014.36
1016.31 1015.80 1015.26 1014.86 1014.40 1014.03 1013.72 1013.58 1013.53 1013.40 1013.13 1013.05 1012.97 1012.78 1011.56 1009.89 1009.20 1009.54 1009.53 1009.54 1009.65 1009.53 1009.42 1009.42 1009.33 1009.34 1009.76 1010.46 1011.10 1011.55 1012.24 1012.88 1013.48 1013.59 1013.35 1013.02 1012.55 1012.57 1012.35 1012.28 1012.62 1013.10 1013.57 1013.93 1014.20
1016.22 1015.71 1015.15 1014.65 1014.17 1013.82 1013.53 1013.35 1013.23 1013.14 1012.93 1012.85 1012.79 1012.38 1010.32 1009.18 1009.31 1009.65 1009.61 1009.58 1009.70 1009.70 1009.56 1009.43 1009.37 1009.43 1009.67 1010.46 1010.78 1011.15 1011.77 1012.33 1013.04 1013.41 1013.23 1013.07 1012.91 1012.78 1012.45 1012.34 1012.49 1012.96 1013.38 1013.85 1014.16
1016.10 1015.58 1015.06 1014.54 1014.06 1013.71 1013.26 1012.91 1012.70 1012.80 1012.73 1012.64 1012.55 1011.69 1009.53 1009.41 1009.13 1008.90 1009.14 1009.06 1009.44 1009.64 1009.66 1009.52 1009.46 1009.66 1009.90 1009.93 1010.44 1011.09 1011.30 1011.76 1012.66 1013.16 1012.95 1013.17 1013.67 1012.51 1012.75 1012.44 1012.45 1012.72 1013.07 1013.38 1013.76
1015.94 1015.41 1014.89 1014.33 1013.85 1013.61 1013.18 1012.68 1012.47 1012.59 1012.65 1012.48 1011.98 1011.32 1009.13 1008.49 1008.24 1008.65 1009.04 1008.99 1008.97 1009.27 1009.49 1009.55 1009.38 1009.39 1009.67 1009.54 1009.45 1010.30 1011.01 1011.56 1011.83 1012.62 1012.68 1012.94 1013.11 1012.36 1012.74 1012.61 1012.41 1012.58 1012.79 1013.01 1013.18
1015.72 1015.12 1014.57 1014.07 1013.55 1013.42 1013.18 1012.71 1012.55 1012.20 1011.69 1010.43 1010.04 1009.32 1008.36 1007.96 1007.90 1008.21 1008.57 1008.73 1008.73 1008.81 1008.85 1009.39 1009.02 1008.57 1008.73 1008.92 1009.48 1009.81 1010.35 1010.95 1011.55 1011.94 1012.42 1012.35 1012.50 1012.45 1012.62 1012.89 1012.49 1012.36 1012.49 1012.63 1012.69
1015.47 1014.71 1014.15 1013.74 1013.22 1012.83 1012.97 1011.53 1010.79 1010.67 1010.18 1009.35 1009.21 1008.77 1008.20 1007.87 1007.66 1007.90 1008.20 1008.29 1008.47 1008.52 1008.98 1009.10 1008.38 1008.61 1008.76 1008.90 1009.22 1009.43 1009.90 1010.44 1011.32 1011.78 1012.15 1011.99 1012.12 1012.10 1012.36 1012.67 1012.65 1012.20 1012.11 1012.06 1012.24
1015.25 1014.53 1013.82 1013.28 1012.90 1012.81 1011.97 1010.64 1010.16 1010.20 1009.81 1008.57 1008.19 1007.75 1007.49 1007.54 1007.40 1007.48 1007.85 1008.09 1008.31 1008.60 1008.67 1008.45 1008.36 1008.50 1008.61 1008.50 1008.77 1008.90 1009.34 1010.02 1010.63 1011.55 1011.93 1011.93 1011.76 1011.94 1012.16 1012.46 1012.25 1012.27 1012.01 1011.65 1011.63
1015.12 1014.38 1013.74 1013.11 1013.03 1011.98 1010.97 1010.23 1010.30 1010.29 1009.29 1008.00 1007.33 1006.73 1007.04 1007.01 1007.28 1007.29 1007.46 1007.78 1008.16 1008.27 1008.71 1008.49 1008.23 1008.22 1008.28 1007.96 1008.30 1008.38 1008.89 1009.52 1010.30 1010.91 1011.35 1011.98 1011.20 1011.36 1011.66 1011.85 1012.06 1011.57 1011.56 1011.33 1011.33
1014.85 1014.14 1013.67 1013.51 1012.78 1011.53 1010.47 1010.19 1010.21 1010.05 1008.51 1007.40 1006.66 1006.47 1006.69 1006.76 1006.95 1007.38 1007.51 1007.57 1007.67 1008.05 1008.53 1007.72 1007.70 1007.81 1007.62 1007.35 1007.72 1008.52 1008.93 1009.24 1009.89 1010.61 1011.21 1011.58 1011.37 1010.93 1011.51 1011.45 1011.35 1011.12 1011.10 1011.08 1011.07
1014.06 1013.72 1013.29 1013.17 1012.91 1010.88 1010.57 1010.20 1009.98 1009.49 1007.88 1006.74 1006.35 1006.38 1006.43 1006.54 1006.72 1007.18 1007.35 1007.46 1007.73 1007.83 1007.96 1007.58 1007.65 1007.46 1007.22 1007.59 1007.77 1008.68 1009.13 1009.71 1010.20 1010.56 1010.70 1011.27 1011.34 1010.20 1010.69 1010.68 1010.79 1010.75 1010.61 1010.65 1010.72
1013.41 1012.79 1012.74 1011.91 1011.20 1010.78 1010.42 1009.93 1009.66 1008.69 1007.60 1006.89 1006.34 1006.25 1006.20 1006.46 1006.57 1006.76 1006.98 1007.28 1007.32 1007.51 1007.29 1007.27 1007.08 1007.08 1007.19 1007.72 1008.46 1008.37 1008.54 1009.05 1009.57 1010.01 1010.47 1011.56 1011.34 1009.88 1010.39 1010.82 1011.00 1010.90 1010.72 1010.68 1010.69
1012.88 1012.15 1012.14 1011.45 1011.00 1010.90 1010.09 1009.82 1009.15 1008.08 1007.40 1006.86 1006.47 1006.41 1006.14 1006.12 1006.31 1006.57 1006.79 1006.82 1007.31 1007.32 1007.13 1006.81 1007.10 1007.22 1007.22 1007.30 1007.35 1008.23 1008.51 1008.37 1008.96 1009.80 1010.46 1011.47 1010.62 1009.88 1010.40 1010.88 1011.07 1011.09 1010.94 1010.63 1010.45
1012.37 1011.80 1011.52 1010.83 1010.82 1010.75 1009.85 1009.45 1008.58 1008.11 1007.45 1006.88 1006.56 1006.29 1006.07 1006.07 1006.05 1006.39 1006.44 1006.33 1006.32 1006.71 1006.63 1006.75 1006.98 1007.46 1007.58 1007.55 1007.88 1008.53 1008.82 1009.22 1009.43 1010.74 1010.35 1010.42 1010.34 1009.94 1010.42 1010.62 1010.76 1010.85 1010.86 1010.63 1010.63
1013.05 1011.95 1011.11 1010.71 1010.67 1010.15 1009.74 1009.27 1009.00 1008.31 1007.57 1007.18 1006.66 1006.54 1006.03 1006.04 1006.19 1006.34 1006.14 1005.71 1005.79 1006.10 1006.41 1006.66 1006.97 1007.37 1007.64 1007.93 1008.27 1008.12 1009.05 1009.22 1009.25 1009.60 1009.73 1009.97 1010.08 1009.67 1010.10 1010.31 1010.43 1010.74 1010.88 1010.96 1010.91
1012.88 1011.73 1010.95 1010.88 1010.73 1010.08 1009.80 1009.54 1008.93 1008.16 1007.82 1007.23 1006.84 1006.65 1006.33 1006.06 1006.13 1006.08 1005.75 1005.47 1005.54 1006.28 1006.45 1006.72 1006.74 1007.62 1007.87 1008.17 1008.26 1008.92 1008.87 1009.44 1009.52 1009.98 1009.68 1009.73 1009.30 1009.56 1009.88 1010.25 1010.54 1010.93 1011.06 1011.20 1011.19
1013.82 1012.07 1010.90 1010.67 1010.82 1011.13 1010.32 1009.81 1009.12 1008.12 1007.71 1007.31 1007.08 1006.77 1006.41 1006.23 1005.98 1005.97 1005.41 1005.00 1005.14 1005.69 1006.18 1006.92 1006.81 1007.15 1008.13 1008.72 1009.04 1008.91 1008.84 1008.88 1008.80 1010.09 1010.51 1010.22 1009.41 1009.63 1010.04 1010.48 1010.88 1011.09 1011.23 1011.38 1011.50
1014.99 1013.49 1011.29 1010.80 1011.24 1011.34 1010.90 1010.10 1009.36 1008.51 1007.90 1007.50 1007.11 1006.92 1006.68 1006.37 1006.24 1005.69 1005.30 1005.05 1005.28 1005.36 1005.67 1006.41 1007.05 1007.37 1007.96 1008.70 1008.93 1008.66 1009.10 1009.33 1009.43 1009.72 1009.81 1009.45 1008.93 1009.64 1010.14 1010.55 1010.91 1011.07 1011.24 1011.36 1011.59
1015.41 1014.08 1012.60 1012.16 1012.76 1012.17 1011.62 1010.61 1009.70 1008.96 1008.43 1008.04 1007.62 1007.24 1007.09 1006.51 1006.25 1005.61 1005.39 1005.38 1005.57 1005.68 1005.87 1005.87 1006.78 1006.70 1006.97 1007.47 1007.93 1008.33 1008.71 1009.15 1008.92 1008.86 1009.13 1008.81 1008.43 1008.75 1009.36 1009.93 1010.56 1011.00 1011.18 1011.15 1011.41
1015.86 1015.56 1015.37 1014.00 1013.35 1013.10 1012.52 1011.60 1010.52 1009.72 1009.12 1008.69 1008.19 1007.98 1007.75 1007.08 1006.39 1005.94 1005.82 1005.89 1005.97 1006.27 1006.33 1006.23 1006.52 1007.26 1007.48 1007.68 1007.81 1007.86 1008.15 1008.69 1008.74 1008.59 1008.44 1008.13 1008.38 1008.28 1008.98 1009.44 1010.02 1010.71 1011.08 1011.22 1011.38
1016.89 1016.53 1015.80 1014.96 1014.38 1013.62 1012.93 1012.13 1011.48 1010.94 1010.29 1009.19 1008.78 1008.53 1008.17 1007.69 1007.37 1006.97 1006.52 1006.27 1005.91 1006.48 1006.55 1006.78 1007.24 1007.61 1007.77 1008.08 1008.10 1007.73 1007.73 1008.00 1008.27 1008.59 1008.51 1008.36 1008.03 1008.47 1009.12 1009.60 1010.06 1010.63 1011.04 1011.18 1011.37
1018.09 1017.72 1017.01 1015.62 1014.66 1013.98 1013.19 1012.66 1012.25 1012.08 1010.90 1010.28 1009.84 1009.24 1008.27 1007.72 1007.60 1007.25 1006.97 1006.47 1006.50 1006.53 1006.61 1006.91 1007.32 1007.73 1007.78 1008.18 1008.08 1007.65 1007.00 1007.28 1007.45 1007.59 1007.66 1007.76 1007.46 1008.49 1009.17 1009.55 1009.89 1010.40 1010.83 1011.07 1011.26
Thickness
5735 5737 5740 5742 5744 5746 5747 5748 5749 5751 5753 5755 5757 5759 5760 5761 5766 5769 5775 5791 5793 5792 5789 5785 5782 5779 5777 5769 5768 5764 5743 5733 5742 5748 5743 5757 5749 5756 5759 5746 5748 5747 5745 5748 5742
5738 5740 5742 5744 5746 5747 5749 5749 5750 5752 5754 5756 5758 5759 5761 5762 5767 5772 5793 5794 5794 5792 5787 5781 5774 5776 5768 5763 5761 5752 5742 5730 5743 5750 5743 5751 5753 5753 5748 5745 5739 5738 5743 5744 5740
5741 5743 5745 5746 5748 5750 5751 5752 5752 5754 5755 5756 5758 5760 5761 5763 5771 5783 5796 5793 5792 5792 5791 5787 5781 5775 5765 5764 5753 5751 5736 5735 5742 5750 5752 5751 5753 5759 5750 5739 5745 5740 5739 5741 5739
5744 5746 5748 5750 5751 5752 5753 5754 5754 5755 5755 5757 5758 5759 5761 5764 5759 5790 5795 5792 5791 5791 5788 5780 5773 5766 5760 5754 5756 5738 5736 5741 5743 5749 5751 5748 5754 5750 5753 5752 5759 5752 5747 5745 5740
5746 5749 5751 5753 5754 5755 5756 5756 5756 5756 5756 5757 5758 5759 5761 5768 5776 5792 5792 5790 5789 5788 5782 5776 5769 5767 5758 5757 5754 5742 5732 5741 5741 5745 5748 5754 5749 5747 5751 5756 5759 5752 5746 5746 5743
5749 5751 5754 5755 5757 5758 5758 5758 5757 5757 5757 5757 5757 5757 5762 5763 5787 5789 5788 5786 5786 5785 5780 5779 5775 5777 5764 5758 5752 5753 5744 5739 5733 5735 5743 5746 5748 5751 5754 5756 5751 5749 5747 5747 5746
5751 5754 5756 5758 5759 5760 5760 5759 5758 5758 5758 5757 5757 5758 5762 5768 5785 5783 5784 5783 5784 5784 5778 5782 5784 5775 5771 5754 5761 5755 5737 5740 5736 5732 5738 5744 5739 5738 5754 5757 5750 5748 5747 5747 5748
5753 5755 5758 5760 5761 5762 5762 5762 5761 5759 5759 5757 5756 5757 5763 5782 5781 5778 5780 5778 5781 5783 5782 5784 5786 5776 5769 5766 5759 5748 5745 5729 5737 5736 5743 5742 5721 5742 5755 5755 5750 5750 5749 5747 5748
5754 5756 5759 5761 5762 5763 5764 5765 5764 5761 5759 5757 5756 5757 5762 5779 5773 5781 5780 5774 5775 5777 5778 5782 5778 5763 5764 5753 5743 5741 5730 5735 5732 5739 5742 5735 5712 5742 5752 5754 5751 5752 5752 5751 5750
5754 5756 5759 5762 5763 5763 5764 5765 5764 5761 5758 5757 5757 5754 5769 5767 5777 5777 5778 5776 5770 5768 5764 5764 5763 5755 5751 5750 5734 5734 5731 5734 5735 5738 5740 5733 5731 5745 5747 5749 5749 5752 5754 5753 5754
5754 5757 5760 5763 5764 5762 5763 5765 5766 5762 5760 5768 5767 5765 5770 5780 5783 5773 5776 5770 5768 5762 5749 5752 5749 5745 5754 5759 5753 5752 5744 5737 5740 5747 5738 5737 5738 5743 5745 5743 5746 5752 5754 5755 5758
5753 5758 5761 5763 5765 5765 5762 5772 5772 5770 5758 5771 5767 5767 5774 5778 5762 5768 5777 5758 5753 5743 5747 5747 5743 5753 5759 5759 5753 5752 5744 5739 5739 5745 5740 5738 5738 5747 5746 5742 5745 5752 5755 5759 5762
5751 5755 5760 5764 5766 5764 5769 5774 5777 5773 5756 5768 5772 5770 5773 5775 5762 5763 5769 5758 5747 5738 5740 5740 5749 5754 5752 5752 5746 5750 5744 5737 5739 5737 5740 5736 5735 5736 5748 5748 5749 5750 5759 5764 5767
5748 5752 5756 5762 5764 5768 5770 5775 5773 5770 5746 5759 5767 5775 5775 5775 5758 5775 5775 5762 5747 5741 5737 5740 5755 5750 5747 5751 5755 5743 5757 5749 5739 5735 5724 5732 5727 5737 5745 5745 5747 5757 5760 5764 5768
5745 5748 5752 5752 5761 5766 5772 5772 5771 5765 5715 5760 5766 5787 5775 5766 5765 5761 5774 5763 5745 5742 5741 5745 5749 5746 5747 5757 5761 5747 5755 5750 5745 5735 5727 5725 5728 5743 5740 5739 5749 5759 5764 5767 5771
5749 5750 5752 5751 5750 5766 5766 5768 5766 5735 5712 5751 5766 5759 5758 5761 5760 5761 5761 5766 5760 5746 5745 5748 5760 5759 5761 5759 5763 5755 5745 5738 5734 5730 5718 5720 5723 5741 5739 5750 5752 5761 5768 5771 5772
5751 5754 5752 5755 5763 5760 5762 5761 5729 5714 5752 5746 5750 5757 5755 5747 5750 5753 5747 5741 5736 5725 5730 5743 5751 5762 5766 5748 5751 5753 5743 5718 5712 5713 5713 5711 5715 5744 5748 5748 5750 5754 5761 5767 5771
5751 5755 5753 5755 5755 5754 5756 5740 5707 5731 5736 5754 5752 5749 5746 5751 5749 5747 5741 5736 5739 5738 5730 5732 5725 5748 5759 5758 5755 5746 5743 5729 5697 5703 5713 5708 5716 5740 5748 5748 5750 5754 5758 5766 5770
5749 5753 5753 5756 5752 5749 5744 5715 5722 5726 5743 5743 5745 5738 5741 5747 5750 5743 5741 5742 5749 5749 5734 5731 5732 5753 5754 5759 5757 5738 5734 5738 5714 5699 5710 5717 5726 5745 5742 5744 5749 5751 5754 5759 5762
5738 5745 5749 5749 5747 5746 5730 5709 5716 5729 5742 5741 5728 5736 5732 5740 5739 5738 5738 5756 5754 5757 5758 5746 5730 5748 5751 5755 5752 5752 5742 5729 5726 5699 5697 5712 5709 5723 5731 5736 5747 5746 5748 5752 5756
5737 5742 5742 5741 5740 5733 5714 5711 5715 5730 5735 5732 5730 5730 5735 5737 5740 5735 5744 5758 5760 5748 5757 5751 5748 5737 5744 5737 5740 5735 5735 5724 5727 5713 5706 5697 5716 5737 5734 5739 5740 5740 5744 5746 5750
5720 5727 5737 5736 5720 5701 5708 5708 5715 5723 5731 5731 5734 5733 5733 5737 5737 5733 5744 5757 5767 5760 5747 5747 5747 5732 5728 5734 5736 5734 5731 5737 5726 5701 5695 5698 5714 5738 5736 5736 5734 5735 5738 5741 5744
5701 5705 5727 5727 5704 5699 5699 5704 5709 5714 5719 5722 5724 5730 5734 5732 5725 5738 5746 5763 5764 5761 5753 5750 5733 5718 5721 5727 5730 5731 5724 5722 5722 5717 5699 5703 5718 5732 5730 5728 5731 5730 5734 5737 5737
5694 5698 5706 5704 5688 5688 5683 5691 5696 5710 5710 5714 5716 5724 5721 5724 5732 5737 5741 5752 5757 5756 5748 5757 5734 5736 5724 5729 5733 5721 5722 5720 5727 5716 5708 5716 5726 5734 5732 5728 5727 5728 5728 5734 5733
5682 5675 5669 5677 5680 5674 5673 5677 5682 5685 5699 5702 5702 5704 5705 5707 5720 5726 5735 5738 5744 5740 5741 5749 5730 5724 5725 5728 5727 5728 5725 5716 5714 5723 5716 5725 5718 5734 5732 5732 5729 5727 5726 5726 5729
5668 5664 5663 5664 5658 5663 5663 5666 5669 5672 5676 5687 5687 5692 5698 5699 5705 5707 5721 5724 5734 5735 5734 5732 5711 5716 5713 5716 5716 5717 5724 5721 5720 5713 5714 5717 5721 5735 5729 5728 5725 5723 5722 5722 5724
5641 5642 5644 5649 5652 5651 5654 5656 5657 5657 5670 5674 5674 5676 5685 5698 5707 5713 5719 5728 5731 5729 5724 5724 5712 5709 5701 5706 5706 5701 5722 5721 5722 5726 5724 5709 5733 5727 5720 5722 5725 5723 5721 5721 5722